GW2072 Weather Reports


time (UTC)temp
C
wind
direction
speed
KPH
gust
KPH
rain 1hr
cm
rain 24hr
cm
rain mn
cm
humidity
%
barometer
mb
20260509024510 11 205 0.0 1.6 0.00 0.23 0.10 85 1009.1
20260509023007 11 227 0.0 3.2 0.00 0.30 0.10 85 1009.1
20260509021505 11 218 1.6 4.8 0.00 0.33 0.10 84 1009.1
20260509020007 11 222 0.0 1.6 0.00 0.33 0.10 83 1009.2
20260509014512 11 227 1.6 6.4 0.00 0.33 0.10 83 1009.0
20260509013023 11 210 1.6 6.4 0.00 0.33 0.10 82 1008.9
20260509011505 12 243 0.0 4.8 0.00 0.33 0.10 82 1008.8
20260509010013 12 224 1.6 4.8 0.00 0.33 0.10 81 1008.6
20260509004511 12 223 4.8 11.3 0.00 0.33 0.10 80 1008.6
20260509003016 12 225 6.4 9.7 0.00 0.33 0.10 80 1008.6
20260509001517 13 238 3.2 12.9 0.00 0.33 0.10 79 1008.6
20260509000018 13 241 8.0 16.1 0.00 0.33 0.10 77 1008.7
20260508234509 13 263 9.7 14.5 0.00 0.33 0.10 75 1008.8
20260508233012 14 231 8.0 19.3 0.00 0.33 0.10 75 1008.8
20260508231519 14 253 8.0 16.1 0.00 0.33 0.10 73 1008.8
20260508230022 14 241 4.8 17.7 0.00 0.33 0.10 74 1008.8
20260508224519 13 236 8.0 24.1 0.00 0.33 0.10 76 1009.0
20260508223019 13 258 9.7 14.5 0.00 0.33 0.10 75 1009.1
20260508221528 13 271 8.0 19.3 0.00 0.33 0.10 76 1009.0
20260508220028 13 249 9.7 16.1 0.00 0.33 0.10 76 1009.0
20260508214523 13 214 9.7 20.9 0.00 0.33 0.10 76 1008.8
20260508213030 13 252 12.9 17.7 0.00 0.33 0.10 73 1009.0
20260508211515 15 170 4.8 11.3 0.00 0.33 0.10 71 1009.1
20260508210018 15 205 6.4 12.9 0.00 0.33 0.10 69 1009.2
20260508204523 15 227 6.4 11.3 0.00 0.33 0.10 69 1009.2
20260508203027 14 229 6.4 11.3 0.00 0.33 0.10 69 1009.3
20260508201524 13 224 3.2 11.3 0.00 0.33 0.10 71 1009.5
20260508200016 13 195 3.2 8.0 0.00 0.33 0.10 71 1009.7
20260508194523 13 260 3.2 6.4 0.00 0.33 0.10 71 1010.1
20260508193023 13 307 3.2 4.8 0.00 0.33 0.10 73 1010.4
20260508191530 13 285 1.6 8.0 0.00 0.33 0.10 73 1010.6
20260508190033 13 240 4.8 11.3 0.00 0.33 0.10 72 1010.6
20260508184518 14 250 6.4 11.3 0.00 0.33 0.10 73 1010.8
20260508183023 13 247 8.0 11.3 0.03 0.33 0.10 76 1011.2
20260508181543 12 207 8.0 14.5 0.03 0.33 0.10 81 1011.4
20260508180009 12 257 6.4 8.0 0.03 0.33 0.10 81 1011.6
20260508174518 11 209 3.2 9.7 0.03 0.33 0.10 81 1011.9
20260508173020 11 249 4.8 9.7 0.00 0.30 0.08 81 1012.2
20260508171503 11 214 6.4 9.7 0.03 0.30 0.08 80 1012.3
20260508170007 12 255 8.0 12.9 0.03 0.30 0.08 80 1012.4
20260508164520 12 258 8.0 12.9 0.03 0.30 0.08 80 1012.6
20260508163013 12 219 4.8 17.7 0.03 0.30 0.08 78 1012.5
20260508161522 12 223 8.0 12.9 0.00 0.28 0.05 79 1012.3
20260508160006 12 246 9.7 17.7 0.00 0.28 0.05 77 1012.5
20260508154511 12 235 8.0 17.7 0.00 0.28 0.05 81 1012.7
20260508153012 11 220 6.4 12.9 0.03 0.28 0.05 83 1012.7
20260508151520 10 269 4.8 9.7 0.03 0.28 0.05 83 1012.9
20260508150024 10 238 3.2 8.0 0.03 0.28 0.05 82 1013.0
20260508144504 10 281 4.8 8.0 0.03 0.28 0.05 80 1013.2
20260508143011 10 269 3.2 8.0 0.00 0.25 0.03 80 1013.2
20260508141515 10 250 6.4 12.9 0.00 0.25 0.03 79 1013.2
20260508140022 10 283 1.6 6.4 0.00 0.25 0.03 80 1013.1
20260508134524 10 258 3.2 9.7 0.00 0.25 0.03 80 1013.2
20260508133029 10 263 3.2 6.4 0.00 0.25 0.03 80 1012.9
20260508131513 9 243 4.8 9.7 0.00 0.25 0.03 81 1013.0
20260508130019 9 264 3.2 6.4 0.00 0.25 0.03 81 1013.0
20260508124520 8 267 4.8 8.0 0.00 0.25 0.03 81 1013.0
20260508123028 8 254 4.8 9.7 0.00 0.25 0.03 81 1013.0
20260508121530 8 301 3.2 6.4 0.00 0.25 0.03 82 1013.0
20260508120015 8 275 3.2 6.4 0.00 0.25 0.03 83 1012.9
20260508114521 7 297 1.6 4.8 0.00 0.25 0.03 84 1012.8
20260508113025 7 255 0.0 3.2 0.00 0.25 0.03 85 1012.6
20260508111535 6 276 0.0 3.2 0.00 0.25 0.03 84 1012.3
20260508110028 6 266 0.0 4.8 0.00 0.25 0.03 84 1012.4
20260508104517 6 250 1.6 4.8 0.00 0.25 0.03 84 1012.1
20260508103029 6 311 0.0 8.0 0.00 0.25 0.03 83 1012.1
20260508101534 7 259 1.6 8.0 0.00 0.25 0.03 83 1012.1
20260508100028 7 259 4.8 11.3 0.00 0.25 0.03 82 1012.1
20260508094529 7 252 3.2 14.5 0.00 0.25 0.03 82 1012.1
20260508093020 7 238 6.4 12.9 0.00 0.25 0.03 83 1012.2
20260508091524 7 251 6.4 12.9 0.00 0.25 0.03 83 1012.2
20260508090007 6 244 4.8 11.3 0.00 0.25 0.03 86 1012.3
20260508084508 6 237 3.2 4.8 0.00 0.25 0.03 87 1012.2
20260508083015 6 220 1.6 3.2 0.00 0.25 0.03 87 1012.2
20260508081520 6 285 0.0 3.2 0.00 0.25 0.03 87 1012.3
20260508080024 6 248 3.2 6.4 0.00 0.25 0.03 88 1012.3
20260508074504 5 208 0.0 3.2 0.00 0.25 0.03 88 1012.2
20260508073013 5 210 0.0 4.8 0.03 0.25 0.03 88 1012.3
20260508071521 6 212 0.0 1.6 0.03 0.25 0.03 88 1012.4
20260508070022 6 211 0.0 3.2 0.03 0.25 0.03 88 1012.5
20260508064536 6 207 1.6 4.8 0.03 0.25 0.03 88 1012.7
20260508063011 6 204 0.0 3.2 0.00 0.23 0.00 88 1012.8
20260508061517 6 231 1.6 3.2 0.00 0.23 0.00 88 1012.9
20260508060021 6 193 0.0 3.2 0.00 0.23 0.00 87 1012.9
20260508054521 6 168 1.6 4.8 0.00 0.23 0.00 87 1013.1
20260508053028 6 213 3.2 6.4 0.00 0.23 0.00 87 1013.1
20260508051510 6 168 0.0 3.2 0.00 0.23 0.00 86 1013.2
20260508050021 6 176 0.0 3.2 0.00 0.23 0.00 86 1013.2
20260508044522 7 176 0.0 3.2 0.03 0.23 0.00 85 1013.3
20260508043023 7 197 1.6 6.4 0.03 0.23 0.00 85 1013.3
20260508041526 7 200 4.8 11.3 0.03 0.23 0.00 85 1013.2
20260508040018 7 192 3.2 6.4 0.05 0.23 0.00 84 1013.4
20260508034516 7 217 3.2 12.9 0.10 0.20 0.20 83 1013.3
20260508033024 7 221 8.0 12.9 0.18 0.20 0.20 82 1013.2
20260508031529 7 198 8.0 17.7 0.20 0.20 0.20 82 1012.4
20260508030028 7 202 3.2 9.7 0.18 0.18 0.18 81 1013.9